Tracking 28794 objects as of 19-Apr-2024
HD Live streaming from Space Station
objects crossing your sky now

TITAN 3C TRANSTAGE DEB

Track TITAN 3C TRANSTAGE DEB now!


NORAD ID: 38691
Int'l Code: 1968-081R
Perigee: 34,832.9 km
Apogee: 36,505.6 km
Inclination: 1.3 °
Period: 1,429.7 minutes
Semi major axis: 42040 km
RCS: 0.003 m2 (small)
Launch date: September 26, 1968
Source: United States (US)
Launch site: AIR FORCE EASTERN TEST RANGE (AFETR)

Note: This is SATELLITE DEBRIS
Your satellite tracking list
Your tracking list is empty




NASA's NSSDC Master Catalog

Two Line Element Set (TLE):
1 38691U 68081R   24109.64778852 -.00000329  00000-0  00000-0 0  9998
2 38691   1.3241   4.4081 0198938 293.0808  64.3118  1.00717591 43411
Source of the keplerian elements: AFSPC